Location: Quedlinburg
(51.7921°N, 11.1414°E)
Time: 00:40:38
(UTC+01:00)

METEOR M2 - Visible Passes

Search period start: 15 March 2026 00:00
Search period end: 25 March 2026 00:00
Orbit: 817 x 824 km, 98.5° (Epoch: 14 March)

Date Brightness Start Highest point End Pass type
(mag) Time Alt. Az. Time Alt. Az. Time Alt. Az.
15 Mar ? 04:00:27 10° NNE 04:05:23 35° E 04:10:17 10° SSE visible
15 Mar ? 05:40:32 10° N 05:45:37 44° WNW 05:50:41 10° SW visible
16 Mar ? 03:40:08 10° NE 03:44:32 25° E 03:48:55 10° SE visible
16 Mar ? 05:19:44 10° N 05:25:03 61° WNW 05:30:21 10° SSW visible
17 Mar ? 03:20:04 10° NE 03:23:37 18° E 03:27:09 10° SE visible
17 Mar ? 04:59:01 10° NNE 05:04:27 85° WNW 05:09:50 10° SSW visible
18 Mar ? 03:00:39 10° ENE 03:02:38 12° E 03:04:36 10° ESE visible
18 Mar ? 04:38:22 10° NNE 04:43:46 69° ESE 04:49:08 10° S visible
19 Mar ? 04:17:48 10° NNE 04:23:03 48° E 04:28:13 10° S visible
20 Mar ? 03:57:21 10° NNE 04:02:14 34° E 04:07:05 10° SSE visible
20 Mar ? 05:37:22 10° N 05:42:30 46° WNW 05:47:35 10° SW visible
21 Mar ? 03:37:03 10° NE 03:41:22 24° E 03:45:39 10° SE visible
21 Mar ? 05:16:36 10° N 05:21:56 64° WNW 05:27:15 10° SSW visible
22 Mar ? 03:17:03 10° NE 03:20:27 17° E 03:23:49 10° SE visible
22 Mar ? 04:55:53 10° NNE 05:01:19 89° WNW 05:06:42 10° SSW visible
23 Mar ? 02:57:50 10° ENE 02:59:26 11° E 03:01:04 10° E visible
23 Mar ? 04:35:15 10° NNE 04:40:38 66° ESE 04:45:59 10° S visible
24 Mar ? 04:14:42 10° NNE 04:19:52 46° E 04:25:02 10° S visible
